This is the latest recevied weather packets stored in our database for station/object W0RMT-13. If no packets are shown the sender has not sent any weather packets the latest 10 day(s).
| Time | Temp. | Humidity | Pressure | Rain* | Wind** | Luminosity | Snow |
|---|---|---|---|---|---|---|---|
| 1778146174 | 3.33° C | 72% | 1015 hPa | 0 mm | - | 0 W/m² | - |
| 1778145520 | 2.78° C | 67% | 1015 hPa | 0 mm | - | 0 W/m² | - |
| 1778144834 | 1.67° C | 77% | 1015 hPa | 0 mm | - | 0 W/m² | - |
| 1778144194 | 1.11° C | 76% | 1015 hPa | 0 mm | - | 0 W/m² | - |
| 1778143592 | 0.56° C | 89% | 1015 hPa | 0 mm | - | 0 W/m² | - |
| 1778142967 | 0.56° C | 87% | 1015 hPa | 0 mm | - | 0 W/m² | - |
| 1778142346 | 0° C | 89% | 1015.4 hPa | 0 mm | - | 0 W/m² | - |
| 1778141633 | -0.56° C | 94% | 1015 hPa | 0 mm | - | 0 W/m² | - |
| 1778140953 | -0.56° C | 96% | 1015.4 hPa | 0 mm | - | 0 W/m² | - |
| 1778140309 | -0.56° C | 98% | 1015.4 hPa | 0 mm | - | 0 W/m² | - |
| 1778139758 | -0.56° C | 99% | 1015.8 hPa | 0 mm | - | 0 W/m² | - |
| 1778139083 | -0.56° C | 99% | 1015.8 hPa | 0 mm | - | 0 W/m² | - |
| 1778138404 | -0.56° C | 99% | 1015.8 hPa | 0 mm | - | 0 W/m² | - |
| 1778137756 | -1.11° C | 99% | 1015.8 hPa | 0 mm | - | 0 W/m² | - |
| 1778137026 | -1.11° C | 99% | 1016.2 hPa | 0 mm | - | 0 W/m² | - |
| 1778136423 | -1.11° C | 99% | 1016.2 hPa | 0 mm | - | 0 W/m² | - |
| 1778135801 | -1.11° C | 99% | 1016.2 hPa | 0 mm | - | 0 W/m² | - |
| 1778135164 | -1.11° C | 99% | 1016.2 hPa | 0 mm | - | 0 W/m² | - |
| 1778134474 | -1.11° C | 99% | 1016.7 hPa | 0 mm | - | 0 W/m² | - |
| 1778133786 | -1.67° C | 99% | 1016.2 hPa | 0 mm | - | 0 W/m² | - |
| 1778133111 | -1.67° C | 99% | 1016.7 hPa | 0 mm | - | 0 W/m² | - |
| 1778132463 | -1.67° C | 99% | 1016.7 hPa | 0 mm | - | 0 W/m² | - |
| 1778131759 | -1.67° C | 99% | 1016.7 hPa | 0 mm | - | 0 W/m² | - |
| 1778131134 | -1.67° C | 99% | 1016.7 hPa | 0 mm | - | 0 W/m² | - |
| 1778130536 | -1.11° C | 99% | 1016.7 hPa | 0 mm | - | 0 W/m² | - |
* Rain latest hour (hover to see other rain measurements)
** Current wind speed in m/s (hover to see current wind gust speed)